Time,TemperatureF,DewpointF,PressureIn,WindDirection,WindDirectionDegrees,WindSpeedMPH,WindSpeedGustMPH,Humidity,HourlyPrecipIn,Conditions,Clouds,dailyrainin,SoftwareType,DateUTC
2013-02-25 00:00:00,66.9,61.9,29.88,East,90,0.0,0.0,84,0.00,,---,0.00,VWS V14.01,2013-02-24 22:00:00,
2013-02-25 00:03:00,66.7,61.4,29.88,East,90,0.0,0.0,83,0.00,,---,0.00,VWS V14.01,2013-02-24 22:03:00,
2013-02-25 00:04:00,66.7,61.4,29.88,East,90,0.0,0.0,83,0.00,,---,0.00,VWS V14.01,2013-02-24 22:04:00,
2013-02-25 00:06:00,66.7,61.4,29.88,ENE,68,0.0,0.0,83,0.00,,---,0.00,VWS V14.01,2013-02-24 22:06:00,
2013-02-25 00:10:00,66.7,61.4,29.88,East,90,0.0,0.0,83,0.00,,---,0.00,VWS V14.01,2013-02-24 22:10:00,
2013-02-25 00:11:00,66.7,61.4,29.88,ENE,68,0.0,0.0,83,0.00,,---,0.00,VWS V14.01,2013-02-24 22:11:00,
2013-02-25 00:13:00,66.7,61.4,29.88,ESE,112,0.0,0.0,83,0.00,,---,0.00,VWS V14.01,2013-02-24 22:13:00,
2013-02-25 00:15:00,66.7,61.4,29.88,NNE,22,0.0,0.0,83,0.00,,---,0.00,VWS V14.01,2013-02-24 22:15:00,
2013-02-25 00:18:00,66.7,61.4,29.88,ENE,68,0.0,0.0,83,0.00,,---,0.00,VWS V14.01,2013-02-24 22:18:00,
2013-02-25 00:21:00,66.7,61.4,29.88,NE,45,0.0,0.0,83,0.00,,---,0.00,VWS V14.01,2013-02-24 22:21:00,
2013-02-25 00:23:00,66.7,61.4,29.88,ENE,68,0.0,0.0,83,0.00,,---,0.00,VWS V14.01,2013-02-24 22:23:00,
2013-02-25 00:27:00,66.6,61.6,29.88,North,0,0.0,0.0,84,0.00,,---,0.00,VWS V14.01,2013-02-24 22:27:00,
2013-02-25 00:29:00,66.6,61.6,29.88,North,0,0.0,0.0,84,0.00,,---,0.00,VWS V14.01,2013-02-24 22:29:00,
2013-02-25 00:30:00,66.6,61.6,29.88,North,0,0.0,0.0,84,0.00,,---,0.00,VWS V14.01,2013-02-24 22:30:00,
2013-02-25 00:32:00,66.4,61.1,29.88,NNE,22,0.0,0.0,83,0.00,,---,0.00,VWS V14.01,2013-02-24 22:32:00,
2013-02-25 00:33:00,66.4,61.1,29.88,NNW,338,0.0,0.0,83,0.00,,---,0.00,VWS V14.01,2013-02-24 22:33:00,
2013-02-25 00:37:00,66.2,61.2,29.88,North,0,0.0,0.0,84,0.00,,---,0.00,VWS V14.01,2013-02-24 22:37:00,
2013-02-25 00:40:00,66.2,61.2,29.88,NE,45,0.0,0.0,84,0.00,,---,0.00,VWS V14.01,2013-02-24 22:40:00,
2013-02-25 00:42:00,66.0,61.0,29.88,NNE,22,0.0,0.0,84,0.00,,---,0.00,VWS V14.01,2013-02-24 22:42:00,
2013-02-25 00:43:00,66.0,61.0,29.88,North,0,0.0,0.0,84,0.00,,---,0.00,VWS V14.01,2013-02-24 22:43:00,
2013-02-25 00:44:00,66.0,61.0,29.88,North,0,0.0,0.0,84,0.00,,---,0.00,VWS V14.01,2013-02-24 22:44:00,
2013-02-25 00:47:00,66.0,61.4,29.88,North,0,0.0,0.0,85,0.00,,---,0.00,VWS V14.01,2013-02-24 22:47:00,
2013-02-25 00:48:00,65.8,61.2,29.88,North,0,0.0,0.0,85,0.00,,---,0.00,VWS V14.01,2013-02-24 22:48:00,
2013-02-25 00:50:00,65.8,61.5,29.88,ENE,68,0.0,0.0,86,0.00,,---,0.00,VWS V14.01,2013-02-24 22:50:00,
2013-02-25 00:52:00,65.8,61.5,29.88,NE,45,0.0,0.0,86,0.00,,---,0.00,VWS V14.01,2013-02-24 22:52:00,
2013-02-25 00:54:00,65.8,61.5,29.88,NE,45,0.0,0.0,86,0.00,,---,0.00,VWS V14.01,2013-02-24 22:54:00,
2013-02-25 00:58:00,65.8,61.9,29.88,ENE,68,0.0,0.0,87,0.00,,---,0.00,VWS V14.01,2013-02-24 22:58:00,
2013-02-25 00:59:00,65.8,61.9,29.88,ESE,112,0.0,0.0,87,0.00,,---,0.00,VWS V14.01,2013-02-24 22:59:00,
2013-02-25 01:00:00,65.8,61.9,29.88,ENE,68,0.0,0.0,87,0.00,,---,0.00,VWS V14.01,2013-02-24 23:00:00,
2013-02-25 01:01:00,65.8,61.9,29.88,ENE,68,0.0,0.0,87,0.00,,---,0.00,VWS V14.01,2013-02-24 23:01:00,
2013-02-25 01:03:00,65.8,62.2,29.88,ENE,68,0.0,0.0,88,0.00,,---,0.00,VWS V14.01,2013-02-24 23:03:00,
2013-02-25 01:05:00,65.8,62.2,29.88,NNE,22,0.0,0.0,88,0.00,,---,0.00,VWS V14.01,2013-02-24 23:05:00,
2013-02-25 01:08:00,65.8,62.2,29.88,North,0,0.0,0.0,88,0.00,,---,0.00,VWS V14.01,2013-02-24 23:08:00,
2013-02-25 01:09:00,65.8,62.2,29.88,North,0,0.0,0.0,88,0.00,,---,0.00,VWS V14.01,2013-02-24 23:09:00,
2013-02-25 01:10:00,65.8,62.2,29.85,North,0,0.0,0.0,88,0.00,,---,0.00,VWS V14.01,2013-02-24 23:10:00,
2013-02-25 01:11:00,65.8,62.2,29.85,North,0,0.0,0.0,88,0.00,,---,0.00,VWS V14.01,2013-02-24 23:11:00,
2013-02-25 01:13:00,65.8,62.5,29.85,ENE,68,0.0,0.0,89,0.00,,---,0.00,VWS V14.01,2013-02-24 23:13:00,
2013-02-25 01:15:00,65.8,62.5,29.85,ENE,68,0.0,0.0,89,0.00,,---,0.00,VWS V14.01,2013-02-24 23:15:00,
2013-02-25 01:16:00,65.8,62.5,29.85,NNE,22,0.0,0.0,89,0.00,,---,0.00,VWS V14.01,2013-02-24 23:16:00,
2013-02-25 01:17:00,65.8,62.5,29.85,ENE,68,0.0,0.0,89,0.00,,---,0.00,VWS V14.01,2013-02-24 23:17:00,
2013-02-25 01:19:00,65.8,62.8,29.85,ENE,68,0.0,0.0,90,0.00,,---,0.00,VWS V14.01,2013-02-24 23:19:00,
2013-02-25 01:20:00,65.8,62.8,29.85,NE,45,0.0,0.0,90,0.00,,---,0.00,VWS V14.01,2013-02-24 23:20:00,
2013-02-25 01:21:00,65.8,62.8,29.85,NNE,22,0.0,0.0,90,0.00,,---,0.00,VWS V14.01,2013-02-24 23:21:00,
2013-02-25 01:24:00,65.8,62.8,29.85,ENE,68,0.0,0.0,90,0.00,,---,0.00,VWS V14.01,2013-02-24 23:24:00,
2013-02-25 01:26:00,65.8,62.8,29.85,ENE,68,0.0,0.0,90,0.00,,---,0.00,VWS V14.01,2013-02-24 23:26:00,
2013-02-25 01:27:00,65.8,62.8,29.85,NNE,22,0.0,0.0,90,0.00,,---,0.00,VWS V14.01,2013-02-24 23:27:00,
2013-02-25 01:31:00,65.8,62.8,29.85,NNE,22,0.0,0.0,90,0.00,,---,0.00,VWS V14.01,2013-02-24 23:31:00,
2013-02-25 01:32:00,65.8,62.8,29.85,NNE,22,0.0,0.0,90,0.00,,---,0.00,VWS V14.01,2013-02-24 23:32:00,
2013-02-25 01:33:00,65.7,62.7,29.85,NNE,22,0.0,0.0,90,0.00,,---,0.00,VWS V14.01,2013-02-24 23:33:00,
2013-02-25 01:37:00,65.8,63.1,29.85,ENE,68,0.0,0.0,91,0.00,,---,0.00,VWS V14.01,2013-02-24 23:37:00,
2013-02-25 01:39:00,65.8,63.1,29.85,East,90,0.0,0.0,91,0.00,,---,0.00,VWS V14.01,2013-02-24 23:39:00,
2013-02-25 01:41:00,65.8,63.1,29.85,East,90,0.0,0.0,91,0.00,,---,0.00,VWS V14.01,2013-02-24 23:41:00,
2013-02-25 01:44:00,66.0,63.6,29.85,ENE,68,0.0,0.0,92,0.00,,---,0.00,VWS V14.01,2013-02-24 23:44:00,
2013-02-25 01:45:00,66.0,63.6,29.85,ENE,68,0.0,0.0,92,0.00,,---,0.00,VWS V14.01,2013-02-24 23:45:00,
2013-02-25 01:47:00,66.0,63.6,29.85,East,90,0.0,0.0,92,0.00,,---,0.00,VWS V14.01,2013-02-24 23:47:00,
2013-02-25 01:50:00,66.2,64.1,29.85,ENE,68,0.0,0.0,93,0.00,,---,0.00,VWS V14.01,2013-02-24 23:50:00,
2013-02-25 01:52:00,66.2,64.1,29.85,ENE,68,0.0,0.0,93,0.00,,---,0.00,VWS V14.01,2013-02-24 23:52:00,
2013-02-25 01:56:00,66.4,64.6,29.85,East,90,0.0,0.0,94,0.00,,---,0.00,VWS V14.01,2013-02-24 23:56:00,
2013-02-25 01:57:00,66.4,64.6,29.85,ESE,112,0.0,0.0,94,0.00,,---,0.00,VWS V14.01,2013-02-24 23:57:00,
2013-02-25 02:00:00,66.6,65.1,29.85,ESE,112,0.0,0.0,95,0.00,,---,0.00,VWS V14.01,2013-02-25 00:00:00,
2013-02-25 02:03:00,66.7,65.3,29.85,ENE,68,0.0,0.0,95,0.00,,---,0.00,VWS V14.01,2013-02-25 00:03:00,
2013-02-25 02:04:00,66.7,65.3,29.85,ENE,68,0.0,0.0,95,0.00,,---,0.00,VWS V14.01,2013-02-25 00:04:00,
2013-02-25 02:07:00,66.7,65.6,29.85,ESE,112,0.0,0.0,96,0.00,,---,0.00,VWS V14.01,2013-02-25 00:07:00,
2013-02-25 02:08:00,66.7,65.6,29.85,ESE,112,0.0,0.0,96,0.00,,---,0.00,VWS V14.01,2013-02-25 00:08:00,
2013-02-25 02:09:00,66.9,65.8,29.85,East,90,0.0,0.0,96,0.00,,---,0.00,VWS V14.01,2013-02-25 00:09:00,
2013-02-25 02:11:00,66.7,65.6,29.82,ENE,68,0.0,0.0,96,0.00,,---,0.00,VWS V14.01,2013-02-25 00:11:00,
2013-02-25 02:12:00,66.9,65.8,29.82,East,90,0.0,0.0,96,0.00,,---,0.00,VWS V14.01,2013-02-25 00:12:00,
2013-02-25 02:16:00,66.9,65.8,29.82,East,90,0.0,0.0,96,0.00,,---,0.00,VWS V14.01,2013-02-25 00:16:00,
2013-02-25 02:18:00,66.9,65.8,29.82,ESE,112,0.0,0.0,96,0.00,,---,0.00,VWS V14.01,2013-02-25 00:18:00,
2013-02-25 02:19:00,66.9,65.8,29.82,ESE,112,0.0,0.0,96,0.00,,---,0.00,VWS V14.01,2013-02-25 00:19:00,
2013-02-25 02:22:00,66.9,65.8,29.82,ESE,112,0.0,0.0,96,0.00,,---,0.00,VWS V14.01,2013-02-25 00:22:00,
2013-02-25 02:23:00,66.9,65.8,29.82,East,90,0.0,0.0,96,0.00,,---,0.00,VWS V14.01,2013-02-25 00:23:00,
2013-02-25 02:25:00,66.9,66.0,29.82,East,90,0.0,0.0,97,0.00,,---,0.00,VWS V14.01,2013-02-25 00:25:00,
2013-02-25 02:26:00,67.1,66.2,29.82,ESE,112,0.0,0.0,97,0.00,,---,0.00,VWS V14.01,2013-02-25 00:26:00,
2013-02-25 02:29:00,67.1,66.2,29.82,ESE,112,0.0,0.0,97,0.00,,---,0.00,VWS V14.01,2013-02-25 00:29:00,
2013-02-25 02:31:00,67.1,66.2,29.82,ESE,112,0.0,0.0,97,0.00,,---,0.00,VWS V14.01,2013-02-25 00:31:00,
2013-02-25 02:32:00,67.1,66.2,29.82,ESE,112,0.0,0.0,97,0.00,,---,0.00,VWS V14.01,2013-02-25 00:32:00,
2013-02-25 02:36:00,67.1,66.2,29.82,ESE,112,0.0,0.0,97,0.00,,---,0.00,VWS V14.01,2013-02-25 00:36:00,
2013-02-25 02:38:00,67.1,66.2,29.82,ESE,112,0.0,0.0,97,0.00,,---,0.00,VWS V14.01,2013-02-25 00:38:00,
2013-02-25 02:39:00,67.1,66.2,29.82,ESE,112,0.0,0.0,97,0.00,,---,0.00,VWS V14.01,2013-02-25 00:39:00,
2013-02-25 02:40:00,67.1,66.2,29.82,ESE,112,0.0,0.0,97,0.00,,---,0.00,VWS V14.01,2013-02-25 00:40:00,
2013-02-25 02:44:00,67.3,66.4,29.82,ESE,112,0.0,0.0,97,0.00,,---,0.00,VWS V14.01,2013-02-25 00:44:00,
2013-02-25 02:45:00,67.3,66.7,29.82,ENE,68,0.0,0.0,98,0.00,,---,0.00,VWS V14.01,2013-02-25 00:45:00,
2013-02-25 02:46:00,67.3,66.7,29.82,East,90,0.0,0.0,98,0.00,,---,0.00,VWS V14.01,2013-02-25 00:46:00,
2013-02-25 02:47:00,67.3,66.7,29.82,ESE,112,0.0,0.0,98,0.00,,---,0.00,VWS V14.01,2013-02-25 00:47:00,
2013-02-25 02:51:00,67.5,66.9,29.82,East,90,0.0,0.0,98,0.00,,---,0.00,VWS V14.01,2013-02-25 00:51:00,
2013-02-25 02:53:00,67.5,66.9,29.82,ESE,112,0.0,0.0,98,0.00,,---,0.00,VWS V14.01,2013-02-25 00:53:00,
2013-02-25 02:54:00,67.5,66.9,29.82,East,90,0.0,0.0,98,0.00,,---,0.00,VWS V14.01,2013-02-25 00:54:00,
2013-02-25 02:58:00,67.6,67.1,29.82,ESE,112,0.0,0.0,98,0.00,,---,0.00,VWS V14.01,2013-02-25 00:58:00,
2013-02-25 03:02:00,67.6,67.1,29.82,ESE,112,0.0,0.0,98,0.00,,---,0.00,VWS V14.01,2013-02-25 01:02:00,
2013-02-25 03:04:00,67.6,67.1,29.82,East,90,0.0,0.0,98,0.00,,---,0.00,VWS V14.01,2013-02-25 01:04:00,
2013-02-25 03:06:00,67.8,67.2,29.82,ENE,68,0.0,0.0,98,0.00,,---,0.00,VWS V14.01,2013-02-25 01:06:00,
2013-02-25 03:09:00,67.8,67.2,29.82,ESE,112,0.0,0.0,98,0.00,,---,0.00,VWS V14.01,2013-02-25 01:09:00,
2013-02-25 03:12:00,67.8,67.2,29.82,ESE,112,0.0,0.0,98,0.00,,---,0.00,VWS V14.01,2013-02-25 01:12:00,
2013-02-25 03:16:00,67.8,67.2,29.82,East,90,0.0,0.0,98,0.00,,---,0.00,VWS V14.01,2013-02-25 01:16:00,
2013-02-25 03:18:00,67.8,67.2,29.82,ENE,68,0.0,0.0,98,0.00,,---,0.00,VWS V14.01,2013-02-25 01:18:00,
2013-02-25 03:21:00,67.8,67.2,29.82,ESE,112,0.0,0.0,98,0.00,,---,0.00,VWS V14.01,2013-02-25 01:21:00,
2013-02-25 03:22:00,67.8,67.2,29.82,ESE,112,0.0,0.0,98,0.00,,---,0.00,VWS V14.01,2013-02-25 01:22:00,
2013-02-25 03:23:00,67.8,67.2,29.82,ESE,112,0.0,0.0,98,0.00,,---,0.00,VWS V14.01,2013-02-25 01:23:00,
2013-02-25 03:24:00,67.8,67.2,29.82,East,90,0.0,0.0,98,0.00,,---,0.00,VWS V14.01,2013-02-25 01:24:00,
2013-02-25 03:27:00,67.8,67.2,29.82,ESE,112,0.0,0.0,98,0.00,,---,0.00,VWS V14.01,2013-02-25 01:27:00,
2013-02-25 03:29:00,67.8,67.2,29.82,ESE,112,0.0,0.0,98,0.00,,---,0.00,VWS V14.01,2013-02-25 01:29:00,
2013-02-25 03:31:00,67.8,67.2,29.82,ESE,112,0.0,0.0,98,0.00,,---,0.00,VWS V14.01,2013-02-25 01:31:00,
2013-02-25 03:32:00,67.6,67.1,29.82,ESE,112,0.0,0.0,98,0.00,,---,0.00,VWS V14.01,2013-02-25 01:32:00,
2013-02-25 03:36:00,67.8,67.2,29.82,ESE,112,0.0,0.0,98,0.00,,---,0.00,VWS V14.01,2013-02-25 01:36:00,
2013-02-25 03:38:00,67.8,67.2,29.82,ESE,112,0.0,0.0,98,0.00,,---,0.00,VWS V14.01,2013-02-25 01:38:00,
2013-02-25 03:40:00,68.0,67.4,29.82,East,90,0.0,0.0,98,0.00,,---,0.00,VWS V14.01,2013-02-25 01:40:00,
2013-02-25 03:42:00,68.0,67.4,29.82,ESE,112,0.0,0.0,98,0.00,,---,0.00,VWS V14.01,2013-02-25 01:42:00,
2013-02-25 03:47:00,68.0,67.4,29.82,East,90,0.0,0.0,98,0.00,,---,0.00,VWS V14.01,2013-02-25 01:47:00,
2013-02-25 03:48:00,68.0,67.4,29.82,East,90,0.0,0.0,98,0.00,,---,0.00,VWS V14.01,2013-02-25 01:48:00,
2013-02-25 03:51:00,68.0,67.4,29.82,East,90,0.0,0.0,98,0.00,,---,0.00,VWS V14.01,2013-02-25 01:51:00,
2013-02-25 03:53:00,68.2,67.6,29.82,ESE,112,0.0,0.0,98,0.00,,---,0.00,VWS V14.01,2013-02-25 01:53:00,
2013-02-25 03:54:00,68.2,67.6,29.82,East,90,0.0,0.0,98,0.00,,---,0.00,VWS V14.01,2013-02-25 01:54:00,
2013-02-25 03:56:00,68.4,67.8,29.82,ESE,112,0.0,0.0,98,0.00,,---,0.00,VWS V14.01,2013-02-25 01:56:00,
2013-02-25 04:01:00,68.5,68.0,29.82,East,90,0.0,0.0,98,0.00,,---,0.00,VWS V14.01,2013-02-25 02:01:00,
2013-02-25 04:02:00,68.5,68.0,29.82,East,90,1.3,3.1,98,0.00,,---,0.00,VWS V14.01,2013-02-25 02:02:00,
2013-02-25 04:06:00,68.5,68.0,29.82,ESE,112,0.0,0.0,98,0.00,,---,0.00,VWS V14.01,2013-02-25 02:06:00,
2013-02-25 04:07:00,68.5,68.0,29.82,ESE,112,0.0,2.2,98,0.00,,---,0.00,VWS V14.01,2013-02-25 02:07:00,
2013-02-25 04:08:00,68.5,68.0,29.82,ESE,112,0.0,0.0,98,0.00,,---,0.00,VWS V14.01,2013-02-25 02:08:00,
2013-02-25 04:11:00,68.5,68.0,29.82,ESE,112,0.0,0.0,98,0.00,,---,0.00,VWS V14.01,2013-02-25 02:11:00,
2013-02-25 04:12:00,68.5,68.0,29.82,ESE,112,0.0,0.0,98,0.00,,---,0.00,VWS V14.01,2013-02-25 02:12:00,
2013-02-25 04:14:00,68.4,67.8,29.82,ESE,112,0.0,0.0,98,0.00,,---,0.00,VWS V14.01,2013-02-25 02:14:00,
2013-02-25 04:16:00,68.4,67.8,29.82,ESE,112,0.0,0.0,98,0.00,,---,0.00,VWS V14.01,2013-02-25 02:16:00,
2013-02-25 04:19:00,68.4,67.8,29.82,ESE,112,0.0,0.0,98,0.00,,---,0.00,VWS V14.01,2013-02-25 02:19:00,
2013-02-25 04:21:00,68.4,67.8,29.82,ESE,112,0.0,0.0,98,0.00,,---,0.00,VWS V14.01,2013-02-25 02:21:00,
2013-02-25 04:24:00,68.4,67.8,29.82,ENE,68,0.0,0.0,98,0.00,,---,0.00,VWS V14.01,2013-02-25 02:24:00,
2013-02-25 04:26:00,68.2,67.6,29.79,East,90,0.0,0.0,98,0.00,,---,0.00,VWS V14.01,2013-02-25 02:26:00,
2013-02-25 04:28:00,68.2,67.6,29.79,ESE,112,0.0,0.0,98,0.00,,---,0.00,VWS V14.01,2013-02-25 02:28:00,
2013-02-25 04:31:00,68.0,67.4,29.79,ESE,112,0.0,0.0,98,0.00,,---,0.00,VWS V14.01,2013-02-25 02:31:00,
2013-02-25 04:33:00,68.0,67.4,29.79,East,90,0.0,0.0,98,0.00,,---,0.00,VWS V14.01,2013-02-25 02:33:00,
2013-02-25 04:35:00,67.8,67.2,29.79,East,90,0.0,0.0,98,0.00,,---,0.00,VWS V14.01,2013-02-25 02:35:00,
2013-02-25 04:36:00,67.8,67.2,29.79,ENE,68,0.0,0.0,98,0.00,,---,0.00,VWS V14.01,2013-02-25 02:36:00,
2013-02-25 04:39:00,67.6,67.1,29.79,ESE,112,0.0,0.0,98,0.00,,---,0.00,VWS V14.01,2013-02-25 02:39:00,
2013-02-25 04:40:00,67.6,67.1,29.82,ENE,68,0.0,0.0,98,0.00,,---,0.00,VWS V14.01,2013-02-25 02:40:00,
2013-02-25 04:41:00,67.6,67.1,29.82,ENE,68,0.0,0.0,98,0.00,,---,0.00,VWS V14.01,2013-02-25 02:41:00,
2013-02-25 04:44:00,67.5,66.9,29.82,East,90,0.0,0.0,98,0.00,,---,0.00,VWS V14.01,2013-02-25 02:44:00,
2013-02-25 04:46:00,67.5,66.9,29.82,ENE,68,0.0,0.0,98,0.00,,---,0.00,VWS V14.01,2013-02-25 02:46:00,
2013-02-25 04:47:00,67.5,66.9,29.82,ENE,68,0.0,0.0,98,0.00,,---,0.00,VWS V14.01,2013-02-25 02:47:00,
2013-02-25 04:48:00,67.3,66.7,29.82,ESE,112,0.0,0.0,98,0.00,,---,0.00,VWS V14.01,2013-02-25 02:48:00,
2013-02-25 04:49:00,67.5,66.9,29.82,East,90,0.0,0.0,98,0.00,,---,0.00,VWS V14.01,2013-02-25 02:49:00,
2013-02-25 04:53:00,67.3,66.7,29.82,East,90,0.0,0.0,98,0.00,,---,0.00,VWS V14.01,2013-02-25 02:53:00,
2013-02-25 04:55:00,67.3,66.7,29.79,East,90,0.0,0.0,98,0.00,,---,0.00,VWS V14.01,2013-02-25 02:55:00,
2013-02-25 04:58:00,67.1,66.5,29.79,ENE,68,0.0,0.0,98,0.00,,---,0.00,VWS V14.01,2013-02-25 02:58:00,
2013-02-25 05:00:00,67.1,66.5,29.79,East,90,0.0,0.0,98,0.00,,---,0.00,VWS V14.01,2013-02-25 03:00:00,
2013-02-25 05:01:00,67.1,66.5,29.79,ENE,68,0.0,0.0,98,0.00,,---,0.00,VWS V14.01,2013-02-25 03:01:00,
2013-02-25 05:03:00,67.1,66.5,29.79,NE,45,0.0,0.0,98,0.00,,---,0.00,VWS V14.01,2013-02-25 03:03:00,
2013-02-25 05:04:00,67.1,66.5,29.79,East,90,0.0,0.0,98,0.00,,---,0.00,VWS V14.01,2013-02-25 03:04:00,
2013-02-25 05:07:00,66.9,66.3,29.79,North,0,0.0,0.0,98,0.00,,---,0.00,VWS V14.01,2013-02-25 03:07:00,
2013-02-25 05:09:00,66.7,66.2,29.79,ENE,68,0.0,0.0,98,0.00,,---,0.00,VWS V14.01,2013-02-25 03:09:00,
2013-02-25 05:10:00,66.7,66.2,29.82,ENE,68,0.0,0.0,98,0.00,,---,0.00,VWS V14.01,2013-02-25 03:10:00,
2013-02-25 05:12:00,66.6,66.0,29.82,ENE,68,0.0,0.0,98,0.00,,---,0.00,VWS V14.01,2013-02-25 03:12:00,
2013-02-25 05:14:00,66.6,66.0,29.82,NNW,338,0.0,0.0,98,0.00,,---,0.00,VWS V14.01,2013-02-25 03:14:00,
2013-02-25 05:17:00,66.4,65.8,29.82,NNE,22,0.0,0.0,98,0.00,,---,0.00,VWS V14.01,2013-02-25 03:17:00,
2013-02-25 05:18:00,66.4,65.8,29.82,East,90,0.0,0.0,98,0.00,,---,0.00,VWS V14.01,2013-02-25 03:18:00,
2013-02-25 05:20:00,66.2,65.6,29.82,NNE,22,0.0,0.0,98,0.00,,---,0.00,VWS V14.01,2013-02-25 03:20:00,
2013-02-25 05:23:00,66.2,65.6,29.82,ESE,112,0.0,0.0,98,0.00,,---,0.00,VWS V14.01,2013-02-25 03:23:00,
2013-02-25 05:24:00,66.2,65.6,29.82,East,90,0.0,0.0,98,0.00,,---,0.00,VWS V14.01,2013-02-25 03:24:00,
2013-02-25 05:25:00,66.2,65.6,29.82,North,0,0.0,0.0,98,0.00,,---,0.00,VWS V14.01,2013-02-25 03:25:00,
2013-02-25 05:29:00,66.0,65.4,29.82,NNW,338,0.0,0.0,98,0.00,,---,0.00,VWS V14.01,2013-02-25 03:29:00,
2013-02-25 05:31:00,66.0,65.4,29.82,NNW,338,0.0,0.0,98,0.00,,---,0.00,VWS V14.01,2013-02-25 03:31:00,
2013-02-25 05:33:00,66.0,65.4,29.82,NNW,338,0.0,0.0,98,0.00,,---,0.00,VWS V14.01,2013-02-25 03:33:00,
2013-02-25 05:35:00,66.0,65.4,29.82,North,0,0.0,0.0,98,0.00,,---,0.00,VWS V14.01,2013-02-25 03:35:00,
2013-02-25 05:38:00,66.0,65.4,29.82,ENE,68,0.0,0.0,98,0.00,,---,0.00,VWS V14.01,2013-02-25 03:38:00,
2013-02-25 05:39:00,66.0,65.4,29.82,ENE,68,0.0,0.0,98,0.00,,---,0.00,VWS V14.01,2013-02-25 03:39:00,
2013-02-25 05:42:00,66.0,65.4,29.82,ENE,68,0.0,0.0,98,0.00,,---,0.00,VWS V14.01,2013-02-25 03:42:00,
2013-02-25 05:43:00,66.0,65.4,29.79,East,90,0.0,0.0,98,0.00,,---,0.00,VWS V14.01,2013-02-25 03:43:00,
2013-02-25 05:45:00,66.0,65.4,29.79,NNE,22,0.0,0.0,98,0.00,,---,0.00,VWS V14.01,2013-02-25 03:45:00,
2013-02-25 05:48:00,66.0,65.4,29.79,East,90,0.0,0.0,98,0.00,,---,0.00,VWS V14.01,2013-02-25 03:48:00,
2013-02-25 05:49:00,66.0,65.4,29.79,NNE,22,0.0,0.0,98,0.00,,---,0.00,VWS V14.01,2013-02-25 03:49:00,
2013-02-25 05:51:00,66.0,65.4,29.79,ENE,68,0.0,0.0,98,0.00,,---,0.00,VWS V14.01,2013-02-25 03:51:00,
2013-02-25 05:52:00,66.0,65.4,29.79,ENE,68,0.0,0.0,98,0.00,,---,0.00,VWS V14.01,2013-02-25 03:52:00,
2013-02-25 05:54:00,66.2,65.6,29.79,ENE,68,0.0,0.0,98,0.00,,---,0.00,VWS V14.01,2013-02-25 03:54:00,
2013-02-25 05:57:00,66.2,65.6,29.79,ENE,68,0.0,0.0,98,0.00,,---,0.00,VWS V14.01,2013-02-25 03:57:00,
2013-02-25 05:58:00,66.2,65.6,29.79,ENE,68,0.0,0.0,98,0.00,,---,0.00,VWS V14.01,2013-02-25 03:58:00,
2013-02-25 06:00:00,66.2,65.6,29.79,ENE,68,0.0,0.0,98,0.00,,---,0.00,VWS V14.01,2013-02-25 04:00:00,
2013-02-25 06:02:00,66.2,65.6,29.79,ENE,68,0.0,0.0,98,0.00,,---,0.00,VWS V14.01,2013-02-25 04:02:00,
2013-02-25 06:05:00,66.2,65.6,29.79,East,90,0.0,0.0,98,0.00,,---,0.00,VWS V14.01,2013-02-25 04:05:00,
2013-02-25 06:06:00,66.2,65.6,29.79,ENE,68,0.0,0.0,98,0.00,,---,0.00,VWS V14.01,2013-02-25 04:06:00,
2013-02-25 06:08:00,66.2,65.6,29.79,ENE,68,0.0,0.0,98,0.00,,---,0.00,VWS V14.01,2013-02-25 04:08:00,
2013-02-25 06:11:00,66.2,65.6,29.79,NNE,22,0.0,0.0,98,0.00,,---,0.00,VWS V14.01,2013-02-25 04:11:00,
2013-02-25 06:12:00,66.2,65.6,29.79,North,0,0.0,0.0,98,0.00,,---,0.00,VWS V14.01,2013-02-25 04:12:00,
2013-02-25 06:15:00,66.0,65.4,29.79,ESE,112,0.0,0.0,98,0.00,,---,0.00,VWS V14.01,2013-02-25 04:15:00,
2013-02-25 06:20:00,66.0,65.4,29.79,NNW,338,0.0,0.0,98,0.00,,---,0.00,VWS V14.01,2013-02-25 04:20:00,
2013-02-25 06:21:00,66.0,65.4,29.79,North,0,0.0,0.0,98,0.00,,---,0.00,VWS V14.01,2013-02-25 04:21:00,
2013-02-25 06:22:00,66.2,65.6,29.79,North,0,0.0,0.0,98,0.00,,---,0.00,VWS V14.01,2013-02-25 04:22:00,
2013-02-25 06:26:00,66.4,65.8,29.79,East,90,0.0,0.0,98,0.00,,---,0.00,VWS V14.01,2013-02-25 04:26:00,
2013-02-25 06:27:00,66.4,65.8,29.79,East,90,0.0,0.0,98,0.00,,---,0.00,VWS V14.01,2013-02-25 04:27:00,
2013-02-25 06:28:00,66.6,66.0,29.79,ENE,68,0.0,0.0,98,0.00,,---,0.00,VWS V14.01,2013-02-25 04:28:00,
2013-02-25 06:29:00,66.6,66.0,29.79,ENE,68,0.0,0.0,98,0.00,,---,0.00,VWS V14.01,2013-02-25 04:29:00,
2013-02-25 06:33:00,66.9,66.3,29.79,NE,45,0.0,0.0,98,0.00,,---,0.00,VWS V14.01,2013-02-25 04:33:00,
2013-02-25 06:34:00,67.1,66.5,29.79,ESE,112,0.0,0.0,98,0.00,,---,0.00,VWS V14.01,2013-02-25 04:34:00,
2013-02-25 06:35:00,67.3,66.7,29.79,ESE,112,0.0,0.0,98,0.00,,---,0.00,VWS V14.01,2013-02-25 04:35:00,
2013-02-25 06:40:00,67.6,67.1,29.79,ENE,68,0.0,0.0,98,0.00,,---,0.00,VWS V14.01,2013-02-25 04:40:00,
2013-02-25 06:41:00,67.6,67.1,29.79,NNE,22,0.0,0.0,98,0.00,,---,0.00,VWS V14.01,2013-02-25 04:41:00,
2013-02-25 06:44:00,68.2,67.6,29.79,NNE,22,0.0,0.0,98,0.00,,---,0.00,VWS V14.01,2013-02-25 04:44:00,
2013-02-25 06:45:00,68.4,67.8,29.79,ENE,68,0.0,0.0,98,0.00,,---,0.00,VWS V14.01,2013-02-25 04:45:00,
2013-02-25 06:47:00,68.5,68.0,29.79,ENE,68,0.0,0.0,98,0.00,,---,0.00,VWS V14.01,2013-02-25 04:47:00,
2013-02-25 06:50:00,68.9,68.3,29.79,ENE,68,0.0,0.0,98,0.00,,---,0.00,VWS V14.01,2013-02-25 04:50:00,
2013-02-25 06:51:00,68.9,68.3,29.79,NNE,22,0.0,0.0,98,0.00,,---,0.00,VWS V14.01,2013-02-25 04:51:00,
2013-02-25 06:54:00,69.4,68.8,29.79,ESE,112,0.0,0.0,98,0.00,,---,0.00,VWS V14.01,2013-02-25 04:54:00,
2013-02-25 06:55:00,69.4,68.8,29.79,ENE,68,0.0,0.0,98,0.00,,---,0.00,VWS V14.01,2013-02-25 04:55:00,
2013-02-25 06:56:00,69.6,69.0,29.79,NE,45,0.0,0.0,98,0.00,,---,0.00,VWS V14.01,2013-02-25 04:56:00,
2013-02-25 07:00:00,70.2,69.6,29.79,ESE,112,0.0,0.0,98,0.00,,---,0.00,VWS V14.01,2013-02-25 05:00:00,
2013-02-25 07:02:00,70.3,69.8,29.79,NNE,22,0.0,0.0,98,0.00,,---,0.00,VWS V14.01,2013-02-25 05:02:00,
2013-02-25 07:04:00,70.5,69.9,29.79,NNE,22,0.0,0.0,98,0.00,,---,0.00,VWS V14.01,2013-02-25 05:04:00,
2013-02-25 07:07:00,70.5,69.9,29.79,NNE,22,0.0,0.0,98,0.00,,---,0.00,VWS V14.01,2013-02-25 05:07:00,
2013-02-25 07:09:00,70.5,69.6,29.79,NNE,22,0.0,0.0,97,0.00,,---,0.00,VWS V14.01,2013-02-25 05:09:00,
2013-02-25 07:11:00,70.5,69.6,29.79,NE,45,0.0,0.0,97,0.00,,---,0.00,VWS V14.01,2013-02-25 05:11:00,
2013-02-25 07:14:00,70.5,69.6,29.79,NE,45,0.0,0.0,97,0.00,,---,0.00,VWS V14.01,2013-02-25 05:14:00,
2013-02-25 07:17:00,70.5,69.6,29.79,NE,45,0.0,0.0,97,0.00,,---,0.00,VWS V14.01,2013-02-25 05:17:00,
2013-02-25 07:20:00,70.5,69.6,29.79,NE,45,0.0,0.0,97,0.00,,---,0.00,VWS V14.01,2013-02-25 05:20:00,
2013-02-25 07:21:00,70.5,69.6,29.79,NE,45,0.0,0.0,97,0.00,,---,0.00,VWS V14.01,2013-02-25 05:21:00,
2013-02-25 07:23:00,70.5,69.6,29.79,NE,45,0.0,0.0,97,0.00,,---,0.00,VWS V14.01,2013-02-25 05:23:00,
2013-02-25 07:24:00,70.5,69.6,29.79,NE,45,0.0,0.0,97,0.00,,---,0.00,VWS V14.01,2013-02-25 05:24:00,
2013-02-25 07:28:00,70.5,69.6,29.79,NE,45,0.0,0.0,97,0.00,,---,0.00,VWS V14.01,2013-02-25 05:28:00,
2013-02-25 07:31:00,70.5,69.6,29.79,NE,45,0.0,0.0,97,0.00,,---,0.00,VWS V14.01,2013-02-25 05:31:00,
2013-02-25 07:34:00,70.5,69.6,29.79,East,90,0.0,0.0,97,0.00,,---,0.00,VWS V14.01,2013-02-25 05:34:00,
2013-02-25 07:35:00,70.5,69.6,29.79,East,90,0.0,0.0,97,0.00,,---,0.00,VWS V14.01,2013-02-25 05:35:00,
2013-02-25 07:37:00,70.5,69.6,29.79,East,90,0.0,0.0,97,0.00,,---,0.00,VWS V14.01,2013-02-25 05:37:00,
2013-02-25 07:38:00,70.5,69.6,29.79,East,90,0.0,0.0,97,0.00,,---,0.00,VWS V14.01,2013-02-25 05:38:00,
2013-02-25 07:39:00,70.5,69.6,29.79,ESE,112,0.0,0.0,97,0.00,,---,0.00,VWS V14.01,2013-02-25 05:39:00,
2013-02-25 07:44:00,73.0,65.8,29.79,ESE,112,0.0,0.0,78,0.00,,---,0.00,VWS V14.01,2013-02-25 05:44:00,
2013-02-25 07:45:00,73.2,64.4,29.79,East,90,0.0,0.0,74,0.00,,---,0.00,VWS V14.01,2013-02-25 05:45:00,
2013-02-25 07:46:00,73.2,64.4,29.79,ENE,68,0.0,0.0,74,0.00,,---,0.00,VWS V14.01,2013-02-25 05:46:00,
2013-02-25 07:50:00,73.8,65.0,29.79,East,90,0.0,0.0,74,0.00,,---,0.00,VWS V14.01,2013-02-25 05:50:00,
2013-02-25 07:51:00,73.9,64.8,29.79,East,90,0.0,0.0,73,0.00,,---,0.00,VWS V14.01,2013-02-25 05:51:00,
2013-02-25 07:52:00,74.1,64.5,29.79,NNE,22,0.0,0.0,72,0.00,,---,0.00,VWS V14.01,2013-02-25 05:52:00,
2013-02-25 07:55:00,74.3,64.3,29.79,ENE,68,0.0,0.0,71,0.00,,---,0.00,VWS V14.01,2013-02-25 05:55:00,
2013-02-25 07:57:00,74.8,64.4,29.79,ENE,68,0.0,0.0,70,0.00,,---,0.00,VWS V14.01,2013-02-25 05:57:00,
2013-02-25 08:00:00,75.0,63.3,29.79,ENE,68,0.0,0.0,67,0.00,,---,0.00,VWS V14.01,2013-02-25 06:00:00,
2013-02-25 08:01:00,75.4,63.2,29.79,East,90,0.0,0.0,66,0.00,,---,0.00,VWS V14.01,2013-02-25 06:01:00,
2013-02-25 08:04:00,75.4,61.0,29.79,East,90,0.0,0.0,61,0.00,,---,0.00,VWS V14.01,2013-02-25 06:04:00,
2013-02-25 08:06:00,75.6,61.2,29.79,East,90,0.0,0.0,61,0.00,,---,0.00,VWS V14.01,2013-02-25 06:06:00,
2013-02-25 08:09:00,75.4,60.1,29.79,ENE,68,0.0,0.0,59,0.00,,---,0.00,VWS V14.01,2013-02-25 06:09:00,
2013-02-25 08:12:00,75.4,58.1,29.79,East,90,0.0,0.0,55,0.00,,---,0.00,VWS V14.01,2013-02-25 06:12:00,
2013-02-25 08:14:00,75.4,58.6,29.79,ENE,68,0.0,0.0,56,0.00,,---,0.00,VWS V14.01,2013-02-25 06:14:00,
2013-02-25 08:15:00,75.4,58.6,29.79,ESE,112,0.0,0.0,56,0.00,,---,0.00,VWS V14.01,2013-02-25 06:15:00,
2013-02-25 08:18:00,75.6,57.8,29.79,East,90,0.0,0.0,54,0.00,,---,0.00,VWS V14.01,2013-02-25 06:18:00,
2013-02-25 08:22:00,75.9,59.1,29.79,ESE,112,0.0,0.0,56,0.00,,---,0.00,VWS V14.01,2013-02-25 06:22:00,
2013-02-25 08:23:00,76.3,59.5,29.79,ENE,68,0.0,0.0,56,0.00,,---,0.00,VWS V14.01,2013-02-25 06:23:00,
2013-02-25 08:27:00,76.8,58.9,29.79,ESE,112,0.0,0.0,54,0.00,,---,0.00,VWS V14.01,2013-02-25 06:27:00,
2013-02-25 08:28:00,76.8,57.9,29.79,ENE,68,0.0,0.0,52,0.00,,---,0.00,VWS V14.01,2013-02-25 06:28:00,
2013-02-25 08:30:00,76.8,57.9,29.79,ESE,112,0.0,0.0,52,0.00,,---,0.00,VWS V14.01,2013-02-25 06:30:00,
2013-02-25 08:31:00,76.8,57.9,29.79,ENE,68,0.0,0.0,52,0.00,,---,0.00,VWS V14.01,2013-02-25 06:31:00,
2013-02-25 08:36:00,77.7,58.2,29.79,East,90,0.0,0.0,51,0.00,,---,0.00,VWS V14.01,2013-02-25 06:36:00,
2013-02-25 08:38:00,78.1,57.4,29.79,ENE,68,0.0,0.0,49,0.00,,---,0.00,VWS V14.01,2013-02-25 06:38:00,
2013-02-25 08:41:00,77.7,55.3,29.79,ESE,112,0.0,0.0,46,0.00,,---,0.00,VWS V14.01,2013-02-25 06:41:00,
2013-02-25 08:42:00,77.9,55.5,29.79,ESE,112,0.0,0.0,46,0.00,,---,0.00,VWS V14.01,2013-02-25 06:42:00,
2013-02-25 08:47:00,77.9,54.3,29.79,East,90,0.0,0.0,44,0.00,,---,0.00,VWS V14.01,2013-02-25 06:47:00,
2013-02-25 08:48:00,77.9,53.6,29.79,ESE,112,0.0,0.0,43,0.00,,---,0.00,VWS V14.01,2013-02-25 06:48:00,
2013-02-25 08:49:00,77.9,53.6,29.79,ESE,112,0.0,0.0,43,0.00,,---,0.00,VWS V14.01,2013-02-25 06:49:00,
2013-02-25 08:52:00,78.4,55.4,29.79,ESE,112,0.0,0.0,45,0.00,,---,0.00,VWS V14.01,2013-02-25 06:52:00,
2013-02-25 08:53:00,78.8,55.7,29.79,ESE,112,0.0,0.0,45,0.00,,---,0.00,VWS V14.01,2013-02-25 06:53:00,
2013-02-25 08:56:00,79.2,55.4,29.79,ESE,112,0.0,0.0,44,0.00,,---,0.00,VWS V14.01,2013-02-25 06:56:00,
2013-02-25 08:57:00,79.0,54.6,29.79,ESE,112,0.0,0.0,43,0.00,,---,0.00,VWS V14.01,2013-02-25 06:57:00,
2013-02-25 09:00:00,78.8,54.4,29.79,ESE,112,0.0,0.0,43,0.00,,---,0.00,VWS V14.01,2013-02-25 07:00:00,
2013-02-25 09:01:00,79.0,54.6,29.79,ESE,112,0.0,0.0,43,0.00,,---,0.00,VWS V14.01,2013-02-25 07:01:00,
2013-02-25 09:03:00,79.0,54.0,29.79,ESE,112,0.0,0.0,42,0.00,,---,0.00,VWS V14.01,2013-02-25 07:03:00,
2013-02-25 09:07:00,78.6,53.6,29.79,ESE,112,0.0,0.0,42,0.00,,---,0.00,VWS V14.01,2013-02-25 07:07:00,
2013-02-25 09:09:00,78.6,53.6,29.79,ESE,112,0.0,0.0,42,0.00,,---,0.00,VWS V14.01,2013-02-25 07:09:00,
2013-02-25 09:10:00,78.6,53.6,29.79,East,90,0.0,0.0,42,0.00,,---,0.00,VWS V14.01,2013-02-25 07:10:00,
2013-02-25 09:14:00,78.6,54.3,29.79,ESE,112,0.0,0.0,43,0.00,,---,0.00,VWS V14.01,2013-02-25 07:14:00,
2013-02-25 09:16:00,79.0,54.0,29.79,ESE,112,0.0,0.0,42,0.00,,---,0.00,VWS V14.01,2013-02-25 07:16:00,
2013-02-25 09:17:00,79.0,54.0,29.79,East,90,0.0,0.0,42,0.00,,---,0.00,VWS V14.01,2013-02-25 07:17:00,
2013-02-25 09:20:00,79.9,55.4,29.79,ENE,68,0.0,0.0,43,0.00,,---,0.00,VWS V14.01,2013-02-25 07:20:00,
2013-02-25 09:21:00,79.7,54.6,29.79,ESE,112,0.0,0.0,42,0.00,,---,0.00,VWS V14.01,2013-02-25 07:21:00,
2013-02-25 09:23:00,79.9,54.1,29.79,East,90,0.0,0.0,41,0.00,,---,0.00,VWS V14.01,2013-02-25 07:23:00,
2013-02-25 09:24:00,80.2,54.4,29.79,ESE,112,0.0,0.0,41,0.00,,---,0.00,VWS V14.01,2013-02-25 07:24:00,
2013-02-25 09:25:00,80.2,53.8,29.79,ESE,112,0.0,0.0,40,0.00,,---,0.00,VWS V14.01,2013-02-25 07:25:00,
2013-02-25 09:30:00,80.8,53.5,29.79,East,90,0.0,0.0,39,0.00,,---,0.00,VWS V14.01,2013-02-25 07:30:00,
2013-02-25 09:31:00,80.8,53.5,29.79,ESE,112,0.0,0.0,39,0.00,,---,0.00,VWS V14.01,2013-02-25 07:31:00,
2013-02-25 09:34:00,81.1,52.4,29.79,East,90,0.0,0.0,37,0.00,,---,0.00,VWS V14.01,2013-02-25 07:34:00,
2013-02-25 09:35:00,81.5,52.7,29.79,ESE,112,0.0,0.0,37,0.00,,---,0.00,VWS V14.01,2013-02-25 07:35:00,
2013-02-25 09:37:00,81.5,53.5,29.79,SE,135,0.0,0.0,38,0.00,,---,0.00,VWS V14.01,2013-02-25 07:37:00,
2013-02-25 09:38:00,81.3,52.6,29.79,East,90,0.0,0.0,37,0.00,,---,0.00,VWS V14.01,2013-02-25 07:38:00,
2013-02-25 09:42:00,81.5,52.0,29.79,ESE,112,0.0,0.0,36,0.00,,---,0.00,VWS V14.01,2013-02-25 07:42:00,
2013-02-25 09:45:00,81.5,52.0,29.79,ESE,112,0.0,0.0,36,0.00,,---,0.00,VWS V14.01,2013-02-25 07:45:00,
2013-02-25 09:47:00,81.7,51.4,29.79,ESE,112,0.0,0.0,35,0.00,,---,0.00,VWS V14.01,2013-02-25 07:47:00,
2013-02-25 09:51:00,81.3,50.3,29.79,ESE,112,0.0,0.0,34,0.00,,---,0.00,VWS V14.01,2013-02-25 07:51:00,
2013-02-25 09:52:00,81.1,50.1,29.79,ESE,112,0.0,0.0,34,0.00,,---,0.00,VWS V14.01,2013-02-25 07:52:00,
2013-02-25 09:54:00,81.7,50.6,29.79,NE,45,0.0,0.0,34,0.00,,---,0.00,VWS V14.01,2013-02-25 07:54:00,
2013-02-25 09:56:00,82.2,51.9,29.79,ESE,112,0.0,0.0,35,0.00,,---,0.00,VWS V14.01,2013-02-25 07:56:00,
2013-02-25 09:58:00,82.4,51.2,29.79,East,90,0.0,0.0,34,0.00,,---,0.00,VWS V14.01,2013-02-25 07:58:00,
2013-02-25 09:59:00,82.0,50.9,29.79,ENE,68,0.0,0.0,34,0.00,,---,0.00,VWS V14.01,2013-02-25 07:59:00,
2013-02-25 10:02:00,82.4,51.2,29.79,East,90,0.0,0.0,34,0.00,,---,0.00,VWS V14.01,2013-02-25 08:02:00,
2013-02-25 10:06:00,81.9,49.1,29.79,ESE,112,0.0,0.0,32,0.00,,---,0.00,VWS V14.01,2013-02-25 08:06:00,
2013-02-25 10:07:00,81.7,49.8,29.79,ENE,68,0.0,0.0,33,0.00,,---,0.00,VWS V14.01,2013-02-25 08:07:00,
2013-02-25 10:09:00,82.2,49.5,29.79,ESE,112,0.0,0.0,32,0.00,,---,0.00,VWS V14.01,2013-02-25 08:09:00,
2013-02-25 10:13:00,82.4,49.6,29.79,ESE,112,0.0,0.0,32,0.00,,---,0.00,VWS V14.01,2013-02-25 08:13:00,
2013-02-25 10:16:00,82.6,50.6,29.79,ESE,112,0.0,0.0,33,0.00,,---,0.00,VWS V14.01,2013-02-25 08:16:00,
2013-02-25 10:17:00,82.4,49.6,29.79,ESE,112,0.0,0.0,32,0.00,,---,0.00,VWS V14.01,2013-02-25 08:17:00,
2013-02-25 10:20:00,82.9,50.9,29.79,ESE,112,0.0,0.0,33,0.00,,---,0.00,VWS V14.01,2013-02-25 08:20:00,
2013-02-25 10:21:00,83.1,50.2,29.79,ENE,68,0.0,0.0,32,0.00,,---,0.00,VWS V14.01,2013-02-25 08:21:00,
2013-02-25 10:23:00,83.3,50.4,29.79,NNW,338,0.0,0.0,32,0.00,,---,0.00,VWS V14.01,2013-02-25 08:23:00,
2013-02-25 10:24:00,83.8,50.0,29.79,ESE,112,0.0,0.0,31,0.00,,---,0.00,VWS V14.01,2013-02-25 08:24:00,
2013-02-25 10:26:00,84.0,50.2,29.79,East,90,0.0,0.0,31,0.00,,---,0.00,VWS V14.01,2013-02-25 08:26:00,
2013-02-25 10:28:00,84.6,49.8,29.79,NNW,338,0.0,0.0,30,0.00,,---,0.00,VWS V14.01,2013-02-25 08:28:00,
2013-02-25 10:30:00,84.6,49.8,29.79,North,0,0.0,0.0,30,0.00,,---,0.00,VWS V14.01,2013-02-25 08:30:00,
2013-02-25 10:31:00,84.6,48.8,29.79,East,90,0.0,0.0,29,0.00,,---,0.00,VWS V14.01,2013-02-25 08:31:00,
2013-02-25 10:34:00,85.1,49.3,29.79,East,90,0.0,0.0,29,0.00,,---,0.00,VWS V14.01,2013-02-25 08:34:00,
2013-02-25 10:35:00,85.5,49.6,29.79,ENE,68,0.0,0.0,29,0.00,,---,0.00,VWS V14.01,2013-02-25 08:35:00,
2013-02-25 10:41:00,85.8,48.0,29.76,NE,45,0.0,0.0,27,0.00,,---,0.00,VWS V14.01,2013-02-25 08:41:00,
2013-02-25 10:43:00,85.6,46.8,29.76,East,90,0.0,0.0,26,0.00,,---,0.00,VWS V14.01,2013-02-25 08:43:00,
2013-02-25 10:45:00,86.0,46.1,29.76,ESE,112,0.0,0.0,25,0.00,,---,0.00,VWS V14.01,2013-02-25 08:45:00,
2013-02-25 10:47:00,86.2,46.3,29.76,East,90,0.0,0.0,25,0.00,,---,0.00,VWS V14.01,2013-02-25 08:47:00,
2013-02-25 10:49:00,86.4,45.3,29.76,ESE,112,0.0,0.0,24,0.00,,---,0.00,VWS V14.01,2013-02-25 08:49:00,
2013-02-25 10:52:00,86.0,47.2,29.76,East,90,0.0,0.0,26,0.00,,---,0.00,VWS V14.01,2013-02-25 08:52:00,
2013-02-25 10:54:00,85.5,45.7,29.76,ESE,112,0.0,0.0,25,0.00,,---,0.00,VWS V14.01,2013-02-25 08:54:00,
2013-02-25 10:59:00,86.2,46.3,29.76,ESE,112,0.0,0.0,25,0.00,,---,0.00,VWS V14.01,2013-02-25 08:59:00,
2013-02-25 11:02:00,86.4,45.3,29.76,East,90,0.0,0.0,24,0.00,,---,0.00,VWS V14.01,2013-02-25 09:02:00,
2013-02-25 11:03:00,86.7,49.8,29.76,East,90,0.0,0.0,28,0.00,,---,0.00,VWS V14.01,2013-02-25 09:03:00,
2013-02-25 11:06:00,87.1,50.1,29.76,South,180,0.0,0.0,28,0.00,,---,0.00,VWS V14.01,2013-02-25 09:06:00,
2013-02-25 11:08:00,86.7,49.8,29.76,SE,135,0.0,0.0,28,0.00,,---,0.00,VWS V14.01,2013-02-25 09:08:00,
2013-02-25 11:12:00,86.7,50.7,29.76,ESE,112,0.0,0.0,29,0.00,,---,0.00,VWS V14.01,2013-02-25 09:12:00,
2013-02-25 11:13:00,86.5,50.5,29.76,ESE,112,0.0,0.0,29,0.00,,---,0.00,VWS V14.01,2013-02-25 09:13:00,
2013-02-25 11:16:00,86.4,49.4,29.76,ENE,68,0.0,0.0,28,0.00,,---,0.00,VWS V14.01,2013-02-25 09:16:00,
2013-02-25 11:19:00,85.6,49.8,29.76,ESE,112,0.0,0.0,29,0.00,,---,0.00,VWS V14.01,2013-02-25 09:19:00,
2013-02-25 11:20:00,85.5,49.6,29.76,ESE,112,0.0,0.0,29,0.00,,---,0.00,VWS V14.01,2013-02-25 09:20:00,
2013-02-25 11:23:00,85.8,49.9,29.76,ESE,112,0.0,0.0,29,0.00,,---,0.00,VWS V14.01,2013-02-25 09:23:00,
2013-02-25 11:25:00,86.0,50.1,29.76,ESE,112,0.0,0.0,29,0.00,,---,0.00,VWS V14.01,2013-02-25 09:25:00,
2013-02-25 11:27:00,86.0,50.1,29.76,East,90,0.0,0.0,29,0.00,,---,0.00,VWS V14.01,2013-02-25 09:27:00,
2013-02-25 11:30:00,86.2,49.3,29.76,SE,135,0.0,0.0,28,0.00,,---,0.00,VWS V14.01,2013-02-25 09:30:00,
2013-02-25 11:31:00,86.9,49.9,29.76,ESE,112,0.0,0.0,28,0.00,,---,0.00,VWS V14.01,2013-02-25 09:31:00,
2013-02-25 11:33:00,87.1,50.1,29.76,East,90,0.0,0.0,28,0.00,,---,0.00,VWS V14.01,2013-02-25 09:33:00,
2013-02-25 11:37:00,87.3,50.2,29.76,South,180,0.0,0.0,28,0.00,,---,0.00,VWS V14.01,2013-02-25 09:37:00,
2013-02-25 11:40:00,86.9,49.9,29.76,ESE,112,0.0,0.0,28,0.00,,---,0.00,VWS V14.01,2013-02-25 09:40:00,
2013-02-25 11:43:00,86.7,48.8,29.76,ESE,112,0.0,0.0,27,0.00,,---,0.00,VWS V14.01,2013-02-25 09:43:00,
2013-02-25 11:44:00,86.5,49.6,29.76,ESE,112,0.0,0.0,28,0.00,,---,0.00,VWS V14.01,2013-02-25 09:44:00,
2013-02-25 11:45:00,86.2,49.3,29.76,ESE,112,0.0,0.0,28,0.00,,---,0.00,VWS V14.01,2013-02-25 09:45:00,
2013-02-25 11:48:00,86.5,49.6,29.76,East,90,0.0,0.0,28,0.00,,---,0.00,VWS V14.01,2013-02-25 09:48:00,
2013-02-25 11:50:00,86.7,49.8,29.76,ESE,112,0.0,0.0,28,0.00,,---,0.00,VWS V14.01,2013-02-25 09:50:00,
2013-02-25 11:51:00,86.2,48.3,29.76,East,90,0.0,0.0,27,0.00,,---,0.00,VWS V14.01,2013-02-25 09:51:00,
2013-02-25 11:55:00,86.4,49.4,29.76,ESE,112,0.0,0.0,28,0.00,,---,0.00,VWS V14.01,2013-02-25 09:55:00,
2013-02-25 11:59:00,87.1,48.1,29.76,SE,135,0.0,0.0,26,0.00,,---,0.00,VWS V14.01,2013-02-25 09:59:00,
2013-02-25 12:01:00,87.6,50.5,29.76,SSE,158,0.0,0.0,28,0.00,,---,0.00,VWS V14.01,2013-02-25 10:01:00,
2013-02-25 12:02:00,87.4,50.4,29.76,SE,135,0.0,0.0,28,0.00,,---,0.00,VWS V14.01,2013-02-25 10:02:00,
2013-02-25 12:03:00,87.3,50.2,29.76,SE,135,0.0,0.0,28,0.00,,---,0.00,VWS V14.01,2013-02-25 10:03:00,
2013-02-25 12:05:00,87.3,50.2,29.76,SE,135,0.0,0.0,28,0.00,,---,0.00,VWS V14.01,2013-02-25 10:05:00,
2013-02-25 12:08:00,87.3,50.2,29.76,ESE,112,0.0,0.0,28,0.00,,---,0.00,VWS V14.01,2013-02-25 10:08:00,
2013-02-25 12:09:00,87.4,50.4,29.76,ESE,112,0.0,0.0,28,0.00,,---,0.00,VWS V14.01,2013-02-25 10:09:00,
2013-02-25 12:11:00,87.1,50.1,29.76,ENE,68,0.0,0.0,28,0.00,,---,0.00,VWS V14.01,2013-02-25 10:11:00,
2013-02-25 12:12:00,86.9,49.9,29.76,ESE,112,0.0,0.0,28,0.00,,---,0.00,VWS V14.01,2013-02-25 10:12:00,
2013-02-25 12:13:00,87.1,50.1,29.76,ESE,112,0.0,0.0,28,0.00,,---,0.00,VWS V14.01,2013-02-25 10:13:00,
2013-02-25 12:15:00,87.1,50.1,29.76,SSE,158,0.0,0.0,28,0.00,,---,0.00,VWS V14.01,2013-02-25 10:15:00,
2013-02-25 12:18:00,87.1,50.1,29.76,ESE,112,0.0,0.0,28,0.00,,---,0.00,VWS V14.01,2013-02-25 10:18:00,
2013-02-25 12:20:00,87.1,47.0,29.76,East,90,0.0,0.0,25,0.00,,---,0.00,VWS V14.01,2013-02-25 10:20:00,
2013-02-25 12:23:00,87.6,50.5,29.76,ESE,112,0.0,0.0,28,0.00,,---,0.00,VWS V14.01,2013-02-25 10:23:00,
2013-02-25 12:26:00,87.1,50.1,29.76,ESE,112,0.0,0.0,28,0.00,,---,0.00,VWS V14.01,2013-02-25 10:26:00,
2013-02-25 12:29:00,87.1,50.1,29.76,ESE,112,0.0,0.0,28,0.00,,---,0.00,VWS V14.01,2013-02-25 10:29:00,
2013-02-25 12:32:00,86.4,48.5,29.76,ESE,112,0.0,0.0,27,0.00,,---,0.00,VWS V14.01,2013-02-25 10:32:00,
2013-02-25 12:33:00,86.2,49.3,29.76,SE,135,0.0,0.0,28,0.00,,---,0.00,VWS V14.01,2013-02-25 10:33:00,
2013-02-25 12:37:00,86.5,49.6,29.76,ESE,112,0.0,0.0,28,0.00,,---,0.00,VWS V14.01,2013-02-25 10:37:00,
2013-02-25 12:39:00,86.5,49.6,29.76,ENE,68,0.0,0.0,28,0.00,,---,0.00,VWS V14.01,2013-02-25 10:39:00,
2013-02-25 12:40:00,86.0,47.2,29.76,ESE,112,0.0,0.0,26,0.00,,---,0.00,VWS V14.01,2013-02-25 10:40:00,
2013-02-25 12:41:00,85.8,48.0,29.76,ESE,112,0.0,0.0,27,0.00,,---,0.00,VWS V14.01,2013-02-25 10:41:00,
2013-02-25 12:42:00,85.6,48.8,29.76,East,90,0.0,0.0,28,0.00,,---,0.00,VWS V14.01,2013-02-25 10:42:00,
2013-02-25 12:44:00,85.6,49.8,29.76,SE,135,0.0,2.2,29,0.00,,---,0.00,VWS V14.01,2013-02-25 10:44:00,
2013-02-25 12:47:00,85.6,49.8,29.76,East,90,0.0,0.0,29,0.00,,---,0.00,VWS V14.01,2013-02-25 10:47:00,
2013-02-25 12:48:00,85.8,49.9,29.76,ESE,112,0.0,0.0,29,0.00,,---,0.00,VWS V14.01,2013-02-25 10:48:00,
2013-02-25 12:50:00,85.6,49.8,29.76,SSE,158,0.0,0.0,29,0.00,,---,0.00,VWS V14.01,2013-02-25 10:50:00,
2013-02-25 12:51:00,85.5,49.6,29.76,ESE,112,0.0,0.0,29,0.00,,---,0.00,VWS V14.01,2013-02-25 10:51:00,
2013-02-25 12:54:00,85.1,48.4,29.76,ENE,68,0.0,0.0,28,0.00,,---,0.00,VWS V14.01,2013-02-25 10:54:00,
2013-02-25 12:58:00,84.9,50.1,29.74,ESE,112,0.0,0.0,30,0.00,,---,0.00,VWS V14.01,2013-02-25 10:58:00,
2013-02-25 13:01:00,85.1,50.2,29.74,SSE,158,0.0,0.0,30,0.00,,---,0.00,VWS V14.01,2013-02-25 11:01:00,
2013-02-25 13:03:00,85.3,50.4,29.74,ESE,112,0.0,0.0,30,0.00,,---,0.00,VWS V14.01,2013-02-25 11:03:00,
2013-02-25 13:05:00,85.1,50.2,29.74,ESE,112,0.0,0.0,30,0.00,,---,0.00,VWS V14.01,2013-02-25 11:05:00,
2013-02-25 13:08:00,84.6,49.8,29.74,SE,135,0.0,0.0,30,0.00,,---,0.00,VWS V14.01,2013-02-25 11:08:00,
2013-02-25 13:11:00,84.2,49.4,29.74,ESE,112,0.0,1.6,30,0.00,,---,0.00,VWS V14.01,2013-02-25 11:11:00,
2013-02-25 13:12:00,83.8,50.0,29.74,ESE,112,0.0,0.0,31,0.00,,---,0.00,VWS V14.01,2013-02-25 11:12:00,
2013-02-25 13:15:00,83.7,50.7,29.74,ENE,68,0.0,2.9,32,0.00,,---,0.00,VWS V14.01,2013-02-25 11:15:00,
2013-02-25 13:18:00,83.5,50.5,29.74,SSE,158,0.0,0.0,32,0.00,,---,0.00,VWS V14.01,2013-02-25 11:18:00,
2013-02-25 13:19:00,83.7,50.7,29.74,SSE,158,0.0,0.0,32,0.00,,---,0.00,VWS V14.01,2013-02-25 11:19:00,
2013-02-25 13:22:00,83.3,51.2,29.74,ENE,68,0.0,0.0,33,0.00,,---,0.00,VWS V14.01,2013-02-25 11:22:00,
2013-02-25 13:25:00,82.8,50.8,29.74,SE,135,0.0,0.0,33,0.00,,---,0.00,VWS V14.01,2013-02-25 11:25:00,
2013-02-25 13:26:00,82.6,51.4,29.74,ESE,112,0.0,0.0,34,0.00,,---,0.00,VWS V14.01,2013-02-25 11:26:00,
2013-02-25 13:30:00,82.6,49.8,29.74,SE,135,0.0,0.0,32,0.00,,---,0.00,VWS V14.01,2013-02-25 11:30:00,
2013-02-25 13:34:00,82.6,50.6,29.74,SE,135,0.0,0.0,33,0.00,,---,0.00,VWS V14.01,2013-02-25 11:34:00,
2013-02-25 13:36:00,82.4,50.4,29.74,SSE,158,0.0,0.0,33,0.00,,---,0.00,VWS V14.01,2013-02-25 11:36:00,
2013-02-25 13:39:00,82.2,51.1,29.74,ESE,112,0.0,0.0,34,0.00,,---,0.00,VWS V14.01,2013-02-25 11:39:00,
2013-02-25 13:41:00,82.4,51.2,29.74,SSE,158,0.0,0.0,34,0.00,,---,0.00,VWS V14.01,2013-02-25 11:41:00,
2013-02-25 13:43:00,82.4,51.2,29.74,SE,135,0.0,0.0,34,0.00,,---,0.00,VWS V14.01,2013-02-25 11:43:00,
2013-02-25 13:47:00,82.0,50.9,29.74,SSE,158,0.0,0.0,34,0.00,,---,0.00,VWS V14.01,2013-02-25 11:47:00,
2013-02-25 13:49:00,82.0,51.7,29.74,ESE,112,0.0,0.0,35,0.00,,---,0.00,VWS V14.01,2013-02-25 11:49:00,
2013-02-25 13:51:00,81.9,50.8,29.74,ESE,112,0.0,0.0,34,0.00,,---,0.00,VWS V14.01,2013-02-25 11:51:00,
2013-02-25 13:53:00,81.7,51.4,29.74,East,90,0.0,0.0,35,0.00,,---,0.00,VWS V14.01,2013-02-25 11:53:00,
2013-02-25 13:54:00,81.5,51.2,29.74,NE,45,0.0,0.0,35,0.00,,---,0.00,VWS V14.01,2013-02-25 11:54:00,
2013-02-25 13:56:00,81.3,51.1,29.74,SE,135,0.0,0.0,35,0.00,,---,0.00,VWS V14.01,2013-02-25 11:56:00,
2013-02-25 13:57:00,81.1,50.1,29.74,SSE,158,0.0,0.0,34,0.00,,---,0.00,VWS V14.01,2013-02-25 11:57:00,
2013-02-25 13:58:00,81.5,50.5,29.74,ESE,112,0.0,0.0,34,0.00,,---,0.00,VWS V14.01,2013-02-25 11:58:00,
2013-02-25 14:01:00,81.7,51.4,29.74,ENE,68,0.0,0.0,35,0.00,,---,0.00,VWS V14.01,2013-02-25 12:01:00,
2013-02-25 14:04:00,82.0,51.7,29.74,ESE,112,0.0,0.0,35,0.00,,---,0.00,VWS V14.01,2013-02-25 12:04:00,
2013-02-25 14:07:00,82.4,51.2,29.74,ESE,112,0.0,0.0,34,0.00,,---,0.00,VWS V14.01,2013-02-25 12:07:00,
2013-02-25 14:08:00,82.4,51.2,29.74,SE,135,0.0,0.0,34,0.00,,---,0.00,VWS V14.01,2013-02-25 12:08:00,
2013-02-25 14:11:00,82.8,50.8,29.74,ESE,112,0.0,0.0,33,0.00,,---,0.00,VWS V14.01,2013-02-25 12:11:00,
2013-02-25 14:14:00,82.8,51.6,29.74,ESE,112,0.0,0.0,34,0.00,,---,0.00,VWS V14.01,2013-02-25 12:14:00,
2013-02-25 14:15:00,82.8,50.8,29.74,ESE,112,0.0,0.0,33,0.00,,---,0.00,VWS V14.01,2013-02-25 12:15:00,
2013-02-25 14:17:00,82.4,50.4,29.74,SSE,158,0.0,0.0,33,0.00,,---,0.00,VWS V14.01,2013-02-25 12:17:00,
2013-02-25 14:21:00,82.4,50.4,29.74,SSE,158,0.0,0.0,33,0.00,,---,0.00,VWS V14.01,2013-02-25 12:21:00,
2013-02-25 14:22:00,82.6,50.6,29.74,ESE,112,0.0,0.0,33,0.00,,---,0.00,VWS V14.01,2013-02-25 12:22:00,
2013-02-25 14:24:00,82.4,49.6,29.74,East,90,0.0,0.0,32,0.00,,---,0.00,VWS V14.01,2013-02-25 12:24:00,
2013-02-25 14:25:00,82.6,48.9,29.74,ESE,112,0.0,0.0,31,0.00,,---,0.00,VWS V14.01,2013-02-25 12:25:00,
2013-02-25 14:27:00,82.6,48.9,29.74,ESE,112,0.0,0.0,31,0.00,,---,0.00,VWS V14.01,2013-02-25 12:27:00,
2013-02-25 14:29:00,82.2,48.6,29.74,ESE,112,0.0,0.0,31,0.00,,---,0.00,VWS V14.01,2013-02-25 12:29:00,
2013-02-25 14:32:00,81.9,48.3,29.74,East,90,0.0,0.0,31,0.00,,---,0.00,VWS V14.01,2013-02-25 12:32:00,
2013-02-25 14:34:00,82.0,49.3,29.74,ESE,112,0.0,0.0,32,0.00,,---,0.00,VWS V14.01,2013-02-25 12:34:00,